This is the latest recevied weather packets stored in our database for station/object SP5EB-3. If no packets are shown the sender has not sent any weather packets the latest 10 day(s).
| Time | Temp. | Humidity | Pressure | Rain* | Wind** | Luminosity | Snow |
|---|---|---|---|---|---|---|---|
| 1778083576 | 27.22° C | 99% | 1003.5 hPa | - | - | - | - |
| 1778083265 | 27.78° C | 99% | 1003.5 hPa | - | - | - | - |
| 1778082956 | 28.33° C | 99% | 1003.6 hPa | - | - | - | - |
| 1778082646 | 28.89° C | 99% | 1003.6 hPa | - | - | - | - |
| 1778082336 | 28.33° C | 99% | 1003.6 hPa | - | - | - | - |
| 1778082026 | 28.33° C | 99% | 1003.7 hPa | - | - | - | - |
| 1778081717 | 27.78° C | 99% | 1003.7 hPa | - | - | - | - |
| 1778081406 | 27.78° C | 99% | 1003.7 hPa | - | - | - | - |
| 1778081096 | 27.22° C | 99% | 1003.6 hPa | - | - | - | - |
| 1778080787 | 26.67° C | 99% | 1003.8 hPa | - | - | - | - |
| 1778080477 | 26.11° C | 99% | 1003.7 hPa | - | - | - | - |
| 1778080168 | 25.56° C | 99% | 1003.7 hPa | - | - | - | - |
| 1778079859 | 25.56° C | 99% | 1003.6 hPa | - | - | - | - |
| 1778079548 | 25.56° C | 99% | 1003.8 hPa | - | - | - | - |
| 1778079239 | 25.56° C | 99% | 1003.9 hPa | - | - | - | - |
| 1778078930 | 25.56° C | 99% | 1003.7 hPa | - | - | - | - |
| 1778078311 | 26.11° C | 99% | 1003.9 hPa | - | - | - | - |
| 1778078002 | 26.11° C | 99% | 1003.8 hPa | - | - | - | - |
| 1778077691 | 26.67° C | 99% | 1003.8 hPa | - | - | - | - |
| 1778077072 | 26.67° C | 99% | 1003.8 hPa | - | - | - | - |
| 1778076763 | 26.67° C | 99% | 1003.6 hPa | - | - | - | - |
| 1778076453 | 27.22° C | 99% | 1003.8 hPa | - | - | - | - |
| 1778075833 | 27.78° C | 99% | 1003.9 hPa | - | - | - | - |
| 1778075523 | 27.78° C | 99% | 1004 hPa | - | - | - | - |
| 1778075213 | 27.78° C | 99% | 1003.8 hPa | - | - | - | - |
* Rain since midnight (hover to see other rain measurements)
** Current wind speed in m/s (hover to see current wind gust speed)